TIANHUI 5D

Satellite information

Favourite Embed

Satellite Type and Status

PAYLOADIN ORBIT

Key statistics

Satellite TIANHUI 5D at a glance.

Uptime

312

Days in orbit

Revolutions

≈ 14.9

Per day

Orbit

SSO

Sun Synchronous Orbit

Inclination

97.8

Latest

Satellite identification and parameters

Extended collection of information and parameters for TIANHUI 5D.

Object identification

Identified? True

Debris? False

Object name: TIANHUI 5D

International designator: 2024-126B

Object number (NORAD): 60212

Object ID (CCSDS): 60212

Country: PEOPLES REPUBLIC OF CHINA (PRC)

Current information (Y/N): Y

RCS size: LARGE

Orbital parameters

Period: 96.801 minutes

Inclination: 97.8208 deg

SMA: 6983.607 km

Apoapsis: 607.003 km

Periapsis: 603.942 km

RAAN: 139.8501 deg

Eccentricy: 0.0002192

Argument of periapsis: 96.9773 deg

Mean anomaly: 263.1692 deg

Mean motion: 14.87589272 rev/day

Mean motion (dot): 0.00000575 rev/day2

B* drag term: 0.000069277 1/REarth

Two-line elements (TLE)

Creation date: May 11, 2025, 10:46 p.m.

Reference frame: TEME

Reference center: EARTH

Epoch: May 11, 2025, 12:43 p.m. UTC

TLE line 0: 0 TIANHUI 5D

TLE line 1: 1 60212U 24126B 25131.52995375 .00000575 00000-0 69277-4 0 9995

TLE line 2: 2 60212 97.8208 139.8501 0002192 96.9773 263.1692 14.87589272 46180

Live tracking on map

Real-time ground track for satellite TIANHUI 5D.

In-orbit conjunctions

There are no conjunctions computed for TIANHUI 5D, at the moment. Check back to stay up to date, as we update our databases every day.

Go to all conjunctions

Associated space launch

A pair of satellites officially described as for cartographic surveying purposes, details TBD.

TIANHUI 5D was lifted into orbit during the mission ‘Long March 6A | Tianhui 5 Group 02’, on board a Long March 6A space rocket.

The launch took place on July 4, 2024, 10:49 p.m. from Launch Complex 9A.

For more information about the launch, click the button.

Launch to space Long March 6A | Tianhui 5 Group 02
Long March 6A | Tianhui 5 Group 02

Agency: N/A

Status: Launch Successful

Launch date: July 4, 2024, 10:49 p.m. UTC

Rocket: Long March 6A

Launch pad: Launch Complex 9A

Location: Taiyuan Satellite Launch Center, People's Republic of China

...

Latest news about this satellite

News about space launch
China’s Long March 6A rocket appears to have an orbital debris problem

The upper stage of China’s Long March 6A rocket appears to be creating numerous pieces of space debris, adding to the growing issue of orbital debris.


Newsletter sign-up

Weekly statistics, charts and insights to help you stay on top of the space industry.